FW6296 Weather Reports


Display with metric or nautical units.
time (UTC)temp
F
wind
direction
speed
MPH
gust
MPH
rain 1hr
in
rain 24hr
in
rain mn
in
humidity
%
barometer
mb
20260508192016 67 280 1.0 4.0 0.00 0.02 0.01 59 1008.2
20260508191016 67 284 1.0 3.0 0.00 0.02 0.01 61 1008.3
20260508190018 66 295 1.0 5.0 0.00 0.02 0.01 61 1008.4
20260508185037 67 298 1.0 3.0 0.00 0.02 0.01 59 1008.6
20260508184017 67 273 1.0 5.0 0.00 0.02 0.01 57 1008.6
20260508183017 66 308 1.0 3.0 0.00 0.02 0.01 60 1008.8
20260508182037 66 282 2.0 5.0 0.00 0.02 0.01 60 1008.9
20260508181017 65 267 1.0 5.0 0.00 0.02 0.01 59 1009.0
20260508180017 65 290 1.0 3.0 0.00 0.02 0.01 60 1009.1
20260508175058 65 282 0.0 2.0 0.00 0.02 0.01 61 1009.2
20260508174018 65 298 0.0 4.0 0.00 0.02 0.01 62 1009.3
20260508173017 65 56 1.0 3.0 0.00 0.02 0.01 62 1009.5
20260508172018 64 299 1.0 5.0 0.00 0.02 0.01 63 1009.7
20260508171018 65 287 2.0 6.0 0.00 0.02 0.01 63 1009.8
20260508170018 64 137 1.0 5.0 0.00 0.02 0.01 66 1010.0
20260508165017 64 287 1.0 4.0 0.00 0.02 0.01 65 1010.1
20260508164016 64 286 0.0 2.0 0.00 0.02 0.01 66 1010.3
20260508163016 63 166 1.0 4.0 0.00 0.02 0.01 68 1010.5
20260508162016 63 294 1.0 3.0 0.00 0.02 0.01 67 1010.6
20260508161016 63 281 0.0 3.0 0.00 0.02 0.01 68 1010.5
20260508160016 62 190 1.0 4.0 0.00 0.02 0.01 68 1010.6
20260508155017 62 294 0.0 3.0 0.00 0.02 0.01 71 1010.7
20260508154037 62 276 1.0 4.0 0.00 0.02 0.01 71 1010.8
20260508153017 62 114 1.0 4.0 0.00 0.02 0.01 71 1010.8
20260508152037 62 316 0.0 3.0 0.00 0.02 0.01 71 1011.0
20260508151017 61 273 0.0 3.0 0.00 0.02 0.01 72 1010.9
20260508150018 62 298 1.0 3.0 0.00 0.02 0.01 71 1011.0
20260508145018 61 343 1.0 4.0 0.00 0.02 0.01 71 1011.1
20260508144018 61 339 1.0 3.0 0.00 0.02 0.01 72 1011.2
20260508143038 60 288 1.0 4.0 0.00 0.02 0.01 73 1011.1
20260508142018 59 312 1.0 5.0 0.00 0.02 0.01 77 1011.2
20260508141019 59 114 0.0 3.0 0.00 0.02 0.01 79 1011.2
20260508140015 58 154 0.0 3.0 0.00 0.02 0.01 80 1011.3
20260508135015 57 310 0.0 2.0 0.00 0.02 0.01 84 1011.3
20260508134016 57 296 1.0 3.0 0.00 0.02 0.01 85 1011.3
20260508133016 57 268 0.0 3.0 0.00 0.02 0.01 84 1011.4
20260508132016 56 38 0.0 2.0 0.00 0.02 0.01 86 1011.3
20260508131016 55 94 0.0 2.0 0.00 0.02 0.01 87 1011.3
20260508130036 53 83 0.0 3.0 0.00 0.02 0.01 90 1011.2
20260508125017 52 330 0.0 2.0 0.00 0.02 0.01 92 1011.2
20260508124023 51 132 0.0 2.0 0.00 0.02 0.01 93 1011.1
20260508123023 50 0.0 0.0 0.00 0.02 0.01 95 1011.2
20260508122023 49 123 0.0 2.0 0.00 0.02 0.01 95 1011.2
20260508121044 49 87 0.0 2.0 0.00 0.02 0.01 95 1011.1
20260508120023 48 73 0.0 1.0 0.01 0.02 0.01 95 1011.2
20260508115025 48 0.0 0.0 0.01 0.02 0.01 95 1011.3
20260508114024 48 0.0 0.0 0.01 0.02 0.01 95 1011.4
20260508113024 48 0.0 0.0 0.01 0.02 0.01 95 1011.2
20260508112046 48 0.0 0.0 0.01 0.02 0.01 94 1010.8
20260508111024 48 165 0.0 1.0 0.01 0.02 0.01 94 1010.9
20260508110025 48 0.0 0.0 0.00 0.01 0.00 93 1010.8
20260508105045 48 51 0.0 0.0 0.00 0.01 0.00 92 1010.8
20260508104025 48 0.0 0.0 0.00 0.00 0.00 92 1011.0
20260508103025 48 23 0.0 1.0 0.00 0.00 0.00 92 1011.0
20260508102025 47 332 0.0 1.0 0.00 0.00 0.00 91 1011.1
20260508101106 47 78 0.0 1.0 0.00 0.00 0.00 91 1011.1
20260508100046 47 0.0 0.0 0.00 0.00 0.00 90 1011.1
20260508095046 48 79 0.0 0.0 0.00 0.00 0.00 89 1011.1
20260508094026 48 85 0.0 1.0 0.00 0.00 0.00 88 1011.1
20260508093026 49 334 0.0 1.0 0.00 0.00 0.00 87 1011.3
20260508092026 49 103 0.0 0.0 0.00 0.00 0.00 86 1011.2
20260508091026 49 324 1.0 2.0 0.00 0.00 0.00 85 1011.2
20260508090027 49 331 0.0 2.0 0.00 0.00 0.00 85 1011.2
20260508085027 49 311 0.0 2.0 0.00 0.00 0.00 85 1011.2
20260508084027 49 333 0.0 1.0 0.00 0.00 0.00 84 1011.2
20260508083027 49 322 1.0 3.0 0.00 0.00 0.00 85 1011.2
20260508082027 48 333 1.0 3.0 0.00 0.00 0.00 86 1011.3
20260508081027 48 256 0.0 1.0 0.00 0.00 0.00 87 1011.4
20260508080028 48 344 0.0 1.0 0.00 0.00 0.00 87 1011.4
20260508075028 48 244 0.0 0.0 0.00 0.00 0.00 87 1011.5
20260508074028 48 279 0.0 1.0 0.00 0.00 0.00 87 1011.6
20260508073028 47 336 0.0 0.0 0.00 0.00 0.00 89 1011.7
20260508072030 46 0.0 0.0 0.00 0.00 0.00 91 1011.8
20260508071049 46 334 0.0 0.0 0.00 0.00 0.00 92 1011.8
20260508070029 45 169 0.0 0.0 0.00 0.00 0.00 92 1011.8
20260508065029 46 305 0.0 1.0 0.00 0.00 0.00 91 1011.8
20260508064029 46 88 0.0 1.0 0.00 0.00 0.00 90 1011.7
20260508063029 47 0.0 0.0 0.00 0.00 0.00 89 1011.7
20260508062030 47 294 0.0 1.0 0.00 0.00 0.00 88 1011.8
20260508061030 47 329 1.0 2.0 0.00 0.00 0.00 87 1012.0
20260508060030 48 301 0.0 2.0 0.00 0.00 0.00 87 1011.9
20260508055030 47 328 1.0 2.0 0.00 0.00 0.00 87 1011.9
20260508054015 47 5 0.0 1.0 0.00 0.00 0.00 87 1011.8
20260508053016 48 0.0 0.0 0.00 0.00 0.00 86 1011.8
20260508052036 48 47 0.0 1.0 0.00 0.00 0.00 85 1011.7
20260508051036 49 349 0.0 2.0 0.00 0.00 0.00 83 1011.8
20260508050016 50 40 0.0 1.0 0.00 0.00 0.00 82 1011.7
20260508045016 50 326 1.0 3.0 0.00 0.00 0.00 81 1011.5
20260508044057 50 309 0.0 2.0 0.00 0.00 0.00 80 1011.4
20260508043017 50 333 0.0 2.0 0.00 0.00 0.00 79 1011.3
20260508042017 51 290 0.0 2.0 0.00 0.00 0.00 79 1011.1
20260508041057 51 297 0.0 2.0 0.00 0.00 0.00 78 1011.2
20260508040017 51 280 1.0 3.0 0.00 0.00 0.00 77 1011.2
20260508035018 52 294 1.0 3.0 0.00 0.00 0.00 76 1011.2
20260508034018 52 290 1.0 2.0 0.00 0.00 0.00 75 1011.2
20260508033015 52 299 1.0 3.0 0.00 0.00 0.00 75 1011.1
20260508032016 52 266 1.0 3.0 0.00 0.00 0.00 74 1011.2
20260508031016 52 295 1.0 4.0 0.00 0.00 0.00 74 1011.1
20260508030016 52 317 1.0 3.0 0.00 0.00 0.00 74 1011.0
20260508025016 52 301 1.0 4.0 0.00 0.00 0.00 74 1011.0
20260508024016 50 324 0.0 2.0 0.00 0.00 0.00 74 1011.0
20260508023016 50 97 0.0 1.0 0.00 0.00 0.00 74 1010.9
20260508022016 51 103 0.0 1.0 0.00 0.00 0.00 73 1010.9
20260508021037 51 9 0.0 1.0 0.00 0.00 0.00 71 1010.8
20260508020017 51 326 0.0 0.0 0.00 0.00 0.00 72 1010.7
20260508015037 51 58 0.0 1.0 0.00 0.00 0.00 72 1010.7
20260508014017 51 134 0.0 2.0 0.00 0.00 0.00 71 1010.4
20260508013017 52 151 0.0 1.0 0.00 0.00 0.00 70 1010.3
20260508012017 53 114 0.0 1.0 0.00 0.00 0.00 68 1010.2
20260508011018 53 82 0.0 1.0 0.00 0.00 0.00 66 1010.2
20260508010018 54 93 0.0 1.0 0.00 0.00 0.00 64 1010.1
20260508005018 55 0.0 0.0 0.00 0.00 0.00 61 1010.1
20260508004038 56 0.0 0.0 0.00 0.00 0.00 60 1010.0
20260508003015 57 92 0.0 0.0 0.00 0.00 0.00 58 1010.0
20260508002016 58 320 0.0 3.0 0.00 0.00 0.00 57 1010.0
20260508001036 58 324 1.0 3.0 0.00 0.00 0.00 57 1010.0
20260508000016 58 352 1.0 4.0 0.00 0.00 0.00 59 1010.0
20260507235016 58 46 1.0 4.0 0.00 0.00 0.00 59 1010.0
20260507234016 60 351 2.0 5.0 0.00 0.00 0.00 56 1010.1
20260507233037 61 304 7.0 12.0 0.00 0.00 0.00 47 1009.7
20260507232017 62 299 5.0 9.0 0.00 0.00 0.00 47 1009.7
20260507231037 62 295 5.0 10.0 0.00 0.00 0.00 48 1009.7
20260507230017 61 301 4.0 9.0 0.00 0.00 0.00 51 1009.8
20260507225018 62 297 6.0 10.0 0.00 0.00 0.00 51 1009.9
20260507224018 62 299 5.0 9.0 0.00 0.00 0.00 52 1010.0
20260507223018 62 298 6.0 12.0 0.00 0.00 0.00 52 1010.1
20260507222018 62 290 4.0 9.0 0.00 0.00 0.00 53 1010.2
20260507221018 62 297 3.0 8.0 0.00 0.00 0.00 54 1010.3
20260507220015 62 284 2.0 8.0 0.00 0.00 0.00 54 1010.4
20260507215015 60 304 5.0 9.0 0.00 0.00 0.00 55 1010.6
20260507214016 61 294 4.0 9.0 0.00 0.00 0.00 55 1010.7
20260507213016 61 303 6.0 11.0 0.00 0.00 0.00 55 1010.7
20260507212016 61 302 6.0 11.0 0.00 0.00 0.00 54 1010.8
20260507211016 61 305 7.0 12.0 0.00 0.00 0.00 55 1010.8
20260507210016 60 290 4.0 9.0 0.00 0.00 0.00 56 1010.8
20260507205017 60 287 3.0 7.0 0.00 0.00 0.00 58 1010.9
20260507204017 59 268 2.0 7.0 0.00 0.00 0.00 58 1011.0
20260507203017 58 288 4.0 10.0 0.00 0.00 0.00 58 1011.2
20260507202022 57 297 3.0 8.0 0.00 0.00 0.00 59 1011.4
20260507201017 56 294 4.0 12.0 0.00 0.00 0.00 61 1011.7
20260507200018 56 303 5.0 9.0 0.00 0.00 0.00 61 1011.9
20260507195017 55 301 5.0 10.0 0.00 0.00 0.00 61 1012.3
20260507194018 55 305 3.0 7.0 0.00 0.00 0.00 62 1012.6
20260507193018 54 305 4.0 9.0 0.00 0.00 0.00 64 1012.7